Time,TemperatureF,DewpointF,PressureIn,WindDirection,WindDirectionDegrees,WindSpeedMPH,WindSpeedGustMPH,Humidity,HourlyPrecipIn,Conditions,Clouds,dailyrainin,SoftwareType,DateUTC
2013-04-10 00:00:00,41.8,39.9,29.93,East,99,3.0,7.0,93,0.04,,,1.16,Wunderground v.1.15,2013-04-10 04:00:00,
2013-04-10 00:05:00,41.9,40.0,29.93,NE,47,4.0,7.0,93,0.00,,,0.00,Wunderground v.1.15,2013-04-10 04:05:00,
2013-04-10 00:15:00,41.9,40.0,29.93,East,100,2.0,3.0,93,0.00,,,0.00,Wunderground v.1.15,2013-04-10 04:15:00,
2013-04-10 00:20:00,41.9,40.0,29.93,ESE,102,2.0,2.0,93,0.00,,,0.00,Wunderground v.1.15,2013-04-10 04:20:00,
2013-04-10 00:30:00,41.8,39.9,29.94,East,93,3.0,3.0,93,0.00,,,0.00,Wunderground v.1.15,2013-04-10 04:30:00,
2013-04-10 00:35:00,41.8,39.9,29.94,East,93,3.0,3.0,93,0.00,,,0.00,Wunderground v.1.15,2013-04-10 04:35:00,
2013-04-10 00:40:00,41.8,39.9,29.94,East,85,3.0,3.0,93,0.00,,,0.00,Wunderground v.1.15,2013-04-10 04:40:00,
2013-04-10 00:50:00,41.8,39.6,29.94,ESE,116,2.0,2.0,92,0.00,,,0.00,Wunderground v.1.15,2013-04-10 04:50:00,
2013-04-10 00:55:00,41.6,39.4,29.94,ESE,120,3.0,5.0,92,0.00,,,0.00,Wunderground v.1.15,2013-04-10 04:55:00,
2013-04-10 01:00:00,41.6,39.4,29.94,ENE,62,3.0,3.0,92,0.00,,,0.00,Wunderground v.1.15,2013-04-10 05:00:00,
2013-04-10 01:05:00,41.6,39.4,29.94,ESE,110,3.0,3.0,92,0.00,,,0.00,Wunderground v.1.15,2013-04-10 05:05:00,
2013-04-10 01:15:00,41.5,39.3,29.93,ESE,107,4.0,14.0,92,0.00,,,0.00,Wunderground v.1.15,2013-04-10 05:15:00,
2013-04-10 01:25:00,41.5,39.1,29.93,East,90,3.0,4.0,91,0.00,,,0.00,Wunderground v.1.15,2013-04-10 05:25:00,
2013-04-10 01:30:00,41.3,38.9,29.92,East,80,3.0,5.0,91,0.00,,,0.00,Wunderground v.1.15,2013-04-10 05:30:00,
2013-04-10 01:35:00,41.3,38.9,29.92,NE,34,3.0,5.0,91,0.00,,,0.00,Wunderground v.1.15,2013-04-10 05:35:00,
2013-04-10 01:45:00,41.2,38.5,29.92,ENE,71,3.0,4.0,90,0.00,,,0.00,Wunderground v.1.15,2013-04-10 05:45:00,
2013-04-10 01:50:00,41.1,38.4,29.92,ESE,106,3.0,4.0,90,0.00,,,0.00,Wunderground v.1.15,2013-04-10 05:50:00,
2013-04-10 01:55:00,41.1,38.4,29.92,ENE,71,4.0,4.0,90,0.00,,,0.00,Wunderground v.1.15,2013-04-10 05:55:00,
2013-04-10 02:05:00,41.1,38.4,29.91,SSE,148,5.0,9.0,90,0.00,,,0.00,Wunderground v.1.15,2013-04-10 06:05:00,
2013-04-10 02:15:00,41.1,38.1,29.90,ESE,116,6.0,7.0,89,0.00,,,0.00,Wunderground v.1.15,2013-04-10 06:15:00,
2013-04-10 02:25:00,41.1,38.1,29.90,East,97,5.0,6.0,89,0.00,,,0.00,Wunderground v.1.15,2013-04-10 06:25:00,
2013-04-10 02:30:00,41.1,38.1,29.90,SE,130,4.0,7.0,89,0.00,,,0.00,Wunderground v.1.15,2013-04-10 06:30:00,
2013-04-10 02:35:00,41.1,37.8,29.90,East,83,4.0,7.0,88,0.00,,,0.00,Wunderground v.1.15,2013-04-10 06:35:00,
2013-04-10 02:45:00,41.1,37.8,29.89,ENE,72,4.0,4.0,88,0.00,,,0.00,Wunderground v.1.15,2013-04-10 06:45:00,
2013-04-10 02:50:00,41.1,37.8,29.89,East,88,4.0,4.0,88,0.00,,,0.00,Wunderground v.1.15,2013-04-10 06:50:00,
2013-04-10 02:55:00,41.1,37.8,29.89,ESE,104,4.0,5.0,88,0.00,,,0.00,Wunderground v.1.15,2013-04-10 06:55:00,
2013-04-10 03:05:00,40.9,37.6,29.88,ESE,112,6.0,6.0,88,0.00,,,0.00,Wunderground v.1.15,2013-04-10 07:05:00,
2013-04-10 03:15:00,40.9,37.6,29.88,East,82,4.0,6.0,88,0.00,,,0.00,Wunderground v.1.15,2013-04-10 07:15:00,
2013-04-10 03:20:00,40.9,37.6,29.88,NE,54,2.0,2.0,88,0.00,,,0.00,Wunderground v.1.15,2013-04-10 07:20:00,
2013-04-10 03:30:00,40.8,37.5,29.88,ESE,121,3.0,4.0,88,0.00,,,0.00,Wunderground v.1.15,2013-04-10 07:30:00,
2013-04-10 03:35:00,40.8,37.5,29.88,East,97,3.0,3.0,88,0.00,,,0.00,Wunderground v.1.15,2013-04-10 07:35:00,
2013-04-10 03:40:00,40.8,37.5,29.88,ENE,69,2.0,3.0,88,0.00,,,0.00,Wunderground v.1.15,2013-04-10 07:40:00,
2013-04-10 03:50:00,40.6,37.3,29.88,ESE,121,5.0,8.0,88,0.00,,,0.00,Wunderground v.1.15,2013-04-10 07:50:00,
2013-04-10 03:55:00,40.6,37.3,29.88,SE,140,5.0,5.0,88,0.00,,,0.00,Wunderground v.1.15,2013-04-10 07:55:00,
2013-04-10 04:00:00,40.6,37.3,29.87,ESE,120,5.0,5.0,88,0.00,,,0.00,Wunderground v.1.15,2013-04-10 08:00:00,
2013-04-10 04:05:00,40.5,37.2,29.87,East,97,6.0,6.0,88,0.00,,,0.00,Wunderground v.1.15,2013-04-10 08:05:00,
2013-04-10 04:15:00,40.3,37.0,29.86,East,93,6.0,8.0,88,0.00,,,0.00,Wunderground v.1.15,2013-04-10 08:15:00,
2013-04-10 04:20:00,40.3,37.0,29.86,ESE,103,7.0,7.0,88,0.00,,,0.00,Wunderground v.1.15,2013-04-10 08:20:00,
2013-04-10 04:25:00,40.2,36.9,29.86,ENE,68,5.0,7.0,88,0.00,,,0.00,Wunderground v.1.15,2013-04-10 08:25:00,
2013-04-10 04:35:00,40.3,37.0,29.89,ESE,112,3.0,4.0,88,0.00,,,0.00,Wunderground v.1.15,2013-04-10 08:35:00,
2013-04-10 04:40:00,40.2,36.9,29.89,NNE,30,2.0,2.0,88,0.00,,,0.00,Wunderground v.1.15,2013-04-10 08:40:00,
2013-04-10 04:45:00,40.2,36.9,29.90,NE,47,3.0,6.0,88,0.00,,,0.00,Wunderground v.1.15,2013-04-10 08:45:00,
2013-04-10 04:50:00,40.1,36.8,29.90,NE,44,5.0,5.0,88,0.00,,,0.00,Wunderground v.1.15,2013-04-10 08:50:00,
2013-04-10 05:00:00,40.1,36.8,29.90,NE,51,4.0,4.0,88,0.00,,,0.00,Wunderground v.1.15,2013-04-10 09:00:00,
2013-04-10 05:05:00,39.9,36.6,29.90,NE,49,5.0,6.0,88,0.00,,,0.00,Wunderground v.1.15,2013-04-10 09:05:00,
2013-04-10 05:15:00,39.8,36.8,29.91,NE,34,5.0,6.0,89,0.00,,,0.00,Wunderground v.1.15,2013-04-10 09:15:00,
2013-04-10 05:20:00,39.6,36.6,29.91,NE,40,6.0,6.0,89,0.00,,,0.00,Wunderground v.1.15,2013-04-10 09:20:00,
2013-04-10 05:25:00,39.6,36.6,29.91,ENE,64,5.0,6.0,89,0.00,,,0.00,Wunderground v.1.15,2013-04-10 09:25:00,
2013-04-10 05:35:00,39.3,36.6,29.91,East,88,4.0,4.0,90,0.00,,,0.01,Wunderground v.1.15,2013-04-10 09:35:00,
2013-04-10 05:40:00,39.2,36.5,29.91,NNE,21,5.0,5.0,90,0.00,,,0.01,Wunderground v.1.15,2013-04-10 09:40:00,
2013-04-10 05:50:00,39.2,36.5,29.93,NE,41,4.0,4.0,90,0.00,,,0.02,Wunderground v.1.15,2013-04-10 09:50:00,
2013-04-10 05:55:00,39.1,36.4,29.93,NNE,18,3.0,4.0,90,0.00,,,0.02,Wunderground v.1.15,2013-04-10 09:55:00,
2013-04-10 06:00:00,38.9,36.2,29.88,ENE,64,3.0,7.0,90,0.08,,,0.03,Wunderground v.1.15,2013-04-10 10:00:00,
2013-04-10 06:05:00,38.8,36.1,29.88,East,100,4.0,7.0,90,0.13,,,0.04,Wunderground v.1.15,2013-04-10 10:05:00,
2013-04-10 06:15:00,38.6,36.2,29.90,ENE,71,4.0,5.0,91,0.10,,,0.06,Wunderground v.1.15,2013-04-10 10:15:00,
2013-04-10 06:25:00,38.6,36.2,29.90,ESE,114,4.0,5.0,91,0.07,,,0.07,Wunderground v.1.15,2013-04-10 10:25:00,
2013-04-10 06:30:00,38.6,36.2,29.90,NNE,24,4.0,6.0,91,0.06,,,0.07,Wunderground v.1.15,2013-04-10 10:30:00,
2013-04-10 06:35:00,38.5,36.1,29.90,ENE,76,3.0,6.0,91,0.04,,,0.07,Wunderground v.1.15,2013-04-10 10:35:00,
2013-04-10 06:45:00,38.6,36.2,29.91,ENE,58,3.0,7.0,91,0.00,,,0.07,Wunderground v.1.15,2013-04-10 10:45:00,
2013-04-10 06:50:00,38.6,36.2,29.91,NE,41,4.0,6.0,91,0.00,,,0.07,Wunderground v.1.15,2013-04-10 10:50:00,
2013-04-10 06:55:00,38.6,36.2,29.91,ENE,73,5.0,7.0,91,0.00,,,0.07,Wunderground v.1.15,2013-04-10 10:55:00,
2013-04-10 07:05:00,38.6,36.2,29.91,NE,52,5.0,7.0,91,0.00,,,0.07,Wunderground v.1.15,2013-04-10 11:05:00,
2013-04-10 07:15:00,38.5,36.1,29.90,East,82,4.0,7.0,91,0.00,,,0.07,Wunderground v.1.15,2013-04-10 11:15:00,
2013-04-10 07:25:00,38.5,36.1,29.90,ESE,103,4.0,4.0,91,0.00,,,0.08,Wunderground v.1.15,2013-04-10 11:25:00,
2013-04-10 07:30:00,38.5,36.1,29.90,ESE,112,3.0,3.0,91,0.00,,,0.08,Wunderground v.1.15,2013-04-10 11:30:00,
2013-04-10 07:40:00,38.3,35.9,29.90,East,93,3.0,7.0,91,0.00,,,0.08,Wunderground v.1.15,2013-04-10 11:40:00,
2013-04-10 07:45:00,38.2,35.8,29.88,SSE,147,4.0,7.0,91,0.00,,,0.08,Wunderground v.1.15,2013-04-10 11:45:00,
2013-04-10 07:50:00,38.2,35.8,29.88,ESE,120,6.0,6.0,91,0.00,,,0.09,Wunderground v.1.15,2013-04-10 11:50:00,
2013-04-10 07:55:00,38.2,35.8,29.88,ENE,72,8.0,8.0,91,0.00,,,0.09,Wunderground v.1.15,2013-04-10 11:55:00,
2013-04-10 08:05:00,38.3,35.9,29.86,ENE,78,6.0,8.0,91,0.00,,,0.09,Wunderground v.1.15,2013-04-10 12:05:00,
2013-04-10 08:15:00,38.5,36.1,29.87,ENE,71,7.0,8.0,91,0.00,,,0.09,Wunderground v.1.15,2013-04-10 12:15:00,
2013-04-10 08:20:00,38.5,36.1,29.87,ESE,107,7.0,7.0,91,0.00,,,0.09,Wunderground v.1.15,2013-04-10 12:20:00,
2013-04-10 08:25:00,38.6,36.2,29.87,East,83,6.0,7.0,91,0.00,,,0.09,Wunderground v.1.15,2013-04-10 12:25:00,
2013-04-10 08:30:00,38.8,36.1,29.86,East,100,6.0,12.0,90,0.00,,,0.09,Wunderground v.1.15,2013-04-10 12:30:00,
2013-04-10 08:40:00,38.9,36.2,29.86,ESE,110,8.0,8.0,90,0.00,,,0.09,Wunderground v.1.15,2013-04-10 12:40:00,
2013-04-10 08:45:00,38.9,36.2,29.86,SE,144,7.0,8.0,90,0.00,,,0.09,Wunderground v.1.15,2013-04-10 12:45:00,
2013-04-10 08:50:00,39.1,36.4,29.86,North,357,5.0,6.0,90,0.00,,,0.09,Wunderground v.1.15,2013-04-10 12:50:00,
2013-04-10 09:00:00,39.3,36.6,29.94,North,0,6.0,6.0,90,0.00,,,0.09,Wunderground v.1.15,2013-04-10 13:00:00,
2013-04-10 09:05:00,39.3,36.6,29.94,NNW,346,6.0,6.0,90,0.00,,,0.10,Wunderground v.1.15,2013-04-10 13:05:00,
2013-04-10 09:15:00,39.1,36.4,29.95,NE,41,4.0,6.0,90,0.10,,,0.10,Wunderground v.1.15,2013-04-10 13:15:00,
2013-04-10 09:20:00,38.9,36.2,29.95,NE,35,4.0,5.0,90,0.05,,,0.10,Wunderground v.1.15,2013-04-10 13:20:00,
2013-04-10 09:25:00,38.9,36.2,29.95,NNE,20,3.0,10.0,90,0.04,,,0.10,Wunderground v.1.15,2013-04-10 13:25:00,
2013-04-10 09:35:00,38.6,36.2,29.90,East,99,6.0,8.0,91,0.04,,,0.11,Wunderground v.1.15,2013-04-10 13:35:00,
2013-04-10 09:40:00,38.6,36.2,29.90,ESE,119,7.0,7.0,91,0.04,,,0.11,Wunderground v.1.15,2013-04-10 13:40:00,
2013-04-10 09:45:00,38.6,36.2,29.88,East,88,7.0,7.0,91,0.00,,,0.11,Wunderground v.1.15,2013-04-10 13:45:00,
2013-04-10 09:50:00,38.6,36.2,29.88,East,88,7.0,7.0,91,0.00,,,0.12,Wunderground v.1.15,2013-04-10 13:50:00,
2013-04-10 10:00:00,38.6,36.2,29.87,ESE,119,6.0,6.0,91,0.13,,,0.14,Wunderground v.1.15,2013-04-10 14:00:00,
2013-04-10 10:05:00,38.8,36.4,29.87,ESE,104,2.0,6.0,91,0.10,,,0.15,Wunderground v.1.15,2013-04-10 14:05:00,
2013-04-10 10:15:00,38.9,36.5,29.95,WNW,294,1.0,1.0,91,0.09,,,0.16,Wunderground v.1.15,2013-04-10 14:15:00,
2013-04-10 10:20:00,38.9,36.5,29.95,NE,44,1.0,1.0,91,0.13,,,0.18,Wunderground v.1.15,2013-04-10 14:20:00,
2013-04-10 10:25:00,38.9,36.5,29.95,North,3,2.0,4.0,91,0.11,,,0.18,Wunderground v.1.15,2013-04-10 14:25:00,
2013-04-10 10:35:00,38.9,36.5,29.95,ENE,65,3.0,6.0,91,0.13,,,0.20,Wunderground v.1.15,2013-04-10 14:35:00,
2013-04-10 10:45:00,38.8,36.7,29.86,East,80,3.0,3.0,92,0.12,,,0.22,Wunderground v.1.15,2013-04-10 14:45:00,
2013-04-10 10:55:00,38.6,36.5,29.86,East,99,6.0,14.0,92,0.14,,,0.25,Wunderground v.1.15,2013-04-10 14:55:00,
2013-04-10 11:00:00,38.5,36.4,29.74,ESE,107,9.0,9.0,92,0.14,,,0.26,Wunderground v.1.15,2013-04-10 15:00:00,
2013-04-10 11:05:00,38.6,36.5,29.74,South,182,9.0,11.0,92,0.09,,,0.27,Wunderground v.1.15,2013-04-10 15:05:00,
2013-04-10 11:15:00,38.9,36.8,29.81,East,97,9.0,9.0,92,0.09,,,0.28,Wunderground v.1.15,2013-04-10 15:15:00,
2013-04-10 11:20:00,39.2,37.1,29.81,East,89,9.0,9.0,92,0.07,,,0.28,Wunderground v.1.15,2013-04-10 15:20:00,
2013-04-10 11:30:00,39.5,37.4,29.84,SE,138,5.0,5.0,92,0.06,,,0.30,Wunderground v.1.15,2013-04-10 15:30:00,
2013-04-10 11:35:00,39.5,37.1,29.84,ESE,103,5.0,7.0,91,0.06,,,0.30,Wunderground v.1.15,2013-04-10 15:35:00,
2013-04-10 11:40:00,39.6,37.2,29.84,ESE,121,6.0,6.0,91,0.06,,,0.30,Wunderground v.1.15,2013-04-10 15:40:00,
2013-04-10 11:50:00,39.9,37.2,29.86,East,97,6.0,6.0,90,0.05,,,0.31,Wunderground v.1.15,2013-04-10 15:50:00,
2013-04-10 11:55:00,40.1,37.4,29.86,SE,124,6.0,6.0,90,0.04,,,0.31,Wunderground v.1.15,2013-04-10 15:55:00,
2013-04-10 12:00:00,40.1,37.4,29.85,ESE,114,6.0,6.0,90,0.04,,,0.32,Wunderground v.1.15,2013-04-10 16:00:00,
2013-04-10 12:05:00,40.2,37.5,29.85,ESE,104,6.0,6.0,90,0.04,,,0.32,Wunderground v.1.15,2013-04-10 16:05:00,
2013-04-10 12:15:00,40.2,37.5,29.84,ESE,106,5.0,5.0,90,0.00,,,0.32,Wunderground v.1.15,2013-04-10 16:15:00,
2013-04-10 12:20:00,40.3,37.6,29.84,ENE,65,5.0,6.0,90,0.00,,,0.33,Wunderground v.1.15,2013-04-10 16:20:00,
2013-04-10 12:30:00,40.5,37.8,29.89,NNE,18,4.0,4.0,90,0.00,,,0.33,Wunderground v.1.15,2013-04-10 16:30:00,
2013-04-10 12:35:00,40.6,37.9,29.89,North,0,3.0,4.0,90,0.00,,,0.33,Wunderground v.1.15,2013-04-10 16:35:00,
2013-04-10 12:45:00,41.1,38.4,29.90,NE,37,2.0,3.0,90,0.00,,,0.33,Wunderground v.1.15,2013-04-10 16:45:00,
2013-04-10 12:50:00,41.2,38.5,29.90,NNE,30,2.0,2.0,90,0.00,,,0.33,Wunderground v.1.15,2013-04-10 16:50:00,
2013-04-10 13:00:00,41.3,38.6,29.92,NE,34,2.0,4.0,90,0.00,,,0.33,Wunderground v.1.15,2013-04-10 17:00:00,
2013-04-10 13:05:00,41.2,38.5,29.92,NNE,24,2.0,5.0,90,0.00,,,0.33,Wunderground v.1.15,2013-04-10 17:05:00,
2013-04-10 13:15:00,41.2,38.2,29.91,NE,48,3.0,6.0,89,0.00,,,0.33,Wunderground v.1.15,2013-04-10 17:15:00,
2013-04-10 13:20:00,41.2,38.2,29.91,NE,51,4.0,5.0,89,0.00,,,0.33,Wunderground v.1.15,2013-04-10 17:20:00,
2013-04-10 13:25:00,41.5,38.8,29.91,NNE,30,4.0,5.0,90,0.00,,,0.33,Wunderground v.1.15,2013-04-10 17:25:00,
2013-04-10 13:30:00,41.5,38.5,29.90,North,0,4.0,5.0,89,0.00,,,0.33,Wunderground v.1.15,2013-04-10 17:30:00,
2013-04-10 13:40:00,41.2,37.9,29.90,NE,42,6.0,6.0,88,0.00,,,0.33,Wunderground v.1.15,2013-04-10 17:40:00,
2013-04-10 13:45:00,41.2,38.2,29.89,NNE,28,6.0,6.0,89,0.00,,,0.33,Wunderground v.1.15,2013-04-10 17:45:00,
2013-04-10 13:55:00,41.2,37.9,29.89,NE,34,8.0,10.0,88,0.00,,,0.33,Wunderground v.1.15,2013-04-10 17:55:00,
2013-04-10 14:00:00,41.1,37.8,29.89,ENE,69,7.0,7.0,88,0.00,,,0.33,Wunderground v.1.15,2013-04-10 18:00:00,
2013-04-10 14:05:00,41.1,37.8,29.89,NNE,30,8.0,11.0,88,0.00,,,0.33,Wunderground v.1.15,2013-04-10 18:05:00,
2013-04-10 14:15:00,41.2,37.6,29.90,South,175,5.0,8.0,87,0.00,,,0.33,Wunderground v.1.15,2013-04-10 18:15:00,
2013-04-10 14:20:00,41.2,37.6,29.90,East,85,4.0,8.0,87,0.00,,,0.33,Wunderground v.1.15,2013-04-10 18:20:00,
2013-04-10 14:30:00,41.2,37.6,29.91,NE,42,5.0,5.0,87,0.00,,,0.33,Wunderground v.1.15,2013-04-10 18:30:00,
2013-04-10 14:35:00,41.2,37.6,29.91,ESE,113,5.0,12.0,87,0.00,,,0.33,Wunderground v.1.15,2013-04-10 18:35:00,
2013-04-10 14:40:00,41.2,37.3,29.91,East,93,5.0,5.0,86,0.00,,,0.33,Wunderground v.1.15,2013-04-10 18:40:00,
2013-04-10 14:45:00,41.2,37.3,29.88,ENE,76,4.0,5.0,86,0.00,,,0.33,Wunderground v.1.15,2013-04-10 18:45:00,
2013-04-10 14:55:00,41.2,37.3,29.88,ENE,72,4.0,9.0,86,0.00,,,0.33,Wunderground v.1.15,2013-04-10 18:55:00,
2013-04-10 15:00:00,41.2,37.3,29.89,ESE,121,4.0,4.0,86,0.00,,,0.33,Wunderground v.1.15,2013-04-10 19:00:00,
2013-04-10 15:05:00,41.2,37.3,29.89,ENE,62,4.0,6.0,86,0.00,,,0.33,Wunderground v.1.15,2013-04-10 19:05:00,
2013-04-10 15:15:00,41.3,37.1,29.90,ENE,73,4.0,10.0,85,0.00,,,0.33,Wunderground v.1.15,2013-04-10 19:15:00,
2013-04-10 15:20:00,41.5,37.3,29.90,ESE,107,5.0,5.0,85,0.00,,,0.33,Wunderground v.1.15,2013-04-10 19:20:00,
2013-04-10 15:30:00,41.8,37.6,29.89,ENE,58,4.0,5.0,85,0.00,,,0.33,Wunderground v.1.15,2013-04-10 19:30:00,
2013-04-10 15:35:00,41.6,37.4,29.89,East,97,4.0,5.0,85,0.00,,,0.33,Wunderground v.1.15,2013-04-10 19:35:00,
2013-04-10 15:40:00,41.8,37.6,29.89,NE,42,5.0,5.0,85,0.00,,,0.33,Wunderground v.1.15,2013-04-10 19:40:00,
2013-04-10 15:50:00,41.6,37.1,29.91,NNE,24,5.0,5.0,84,0.00,,,0.33,Wunderground v.1.15,2013-04-10 19:50:00,
2013-04-10 15:55:00,41.6,37.1,29.91,ENE,66,5.0,8.0,84,0.00,,,0.33,Wunderground v.1.15,2013-04-10 19:55:00,
2013-04-10 16:00:00,41.6,37.1,29.91,NE,48,5.0,5.0,84,0.00,,,0.33,Wunderground v.1.15,2013-04-10 20:00:00,
2013-04-10 16:05:00,41.8,37.3,29.91,NE,55,4.0,5.0,84,0.00,,,0.33,Wunderground v.1.15,2013-04-10 20:05:00,
2013-04-10 16:15:00,41.5,37.0,29.91,East,95,5.0,8.0,84,0.00,,,0.33,Wunderground v.1.15,2013-04-10 20:15:00,
2013-04-10 16:25:00,41.5,37.0,29.91,ESE,102,4.0,5.0,84,0.00,,,0.33,Wunderground v.1.15,2013-04-10 20:25:00,
2013-04-10 16:30:00,41.5,37.0,29.94,East,99,3.0,5.0,84,0.00,,,0.33,Wunderground v.1.15,2013-04-10 20:30:00,
2013-04-10 16:35:00,41.5,37.0,29.94,East,90,4.0,7.0,84,0.00,,,0.33,Wunderground v.1.15,2013-04-10 20:35:00,
2013-04-10 16:45:00,41.3,36.8,29.96,ESE,102,5.0,7.0,84,0.00,,,0.33,Wunderground v.1.15,2013-04-10 20:45:00,
2013-04-10 16:50:00,41.3,37.1,29.96,NNE,23,3.0,3.0,85,0.00,,,0.33,Wunderground v.1.15,2013-04-10 20:50:00,
2013-04-10 16:55:00,41.2,37.0,29.96,East,99,2.0,7.0,85,0.00,,,0.33,Wunderground v.1.15,2013-04-10 20:55:00,
2013-04-10 17:05:00,40.9,37.0,29.94,ESE,112,4.0,4.0,86,0.00,,,0.33,Wunderground v.1.15,2013-04-10 21:05:00,
2013-04-10 17:15:00,40.6,37.0,29.92,ENE,69,3.0,4.0,87,0.00,,,0.33,Wunderground v.1.15,2013-04-10 21:15:00,
2013-04-10 17:20:00,40.6,37.3,29.92,NE,55,3.0,3.0,88,0.00,,,0.33,Wunderground v.1.15,2013-04-10 21:20:00,
2013-04-10 17:25:00,40.6,37.3,29.92,NNE,25,4.0,6.0,88,0.00,,,0.33,Wunderground v.1.15,2013-04-10 21:25:00,
2013-04-10 17:30:00,40.8,37.8,29.87,NE,51,5.0,11.0,89,0.00,,,0.33,Wunderground v.1.15,2013-04-10 21:30:00,
2013-04-10 17:40:00,40.8,37.5,29.87,ENE,71,6.0,12.0,88,0.00,,,0.33,Wunderground v.1.15,2013-04-10 21:40:00,
2013-04-10 17:45:00,40.8,37.5,29.85,NE,51,7.0,12.0,88,0.00,,,0.33,Wunderground v.1.15,2013-04-10 21:45:00,
2013-04-10 17:50:00,40.9,37.3,29.85,ENE,68,7.0,10.0,87,0.00,,,0.33,Wunderground v.1.15,2013-04-10 21:50:00,
2013-04-10 18:00:00,41.1,36.9,29.91,ENE,71,5.0,5.0,85,0.00,,,0.33,Wunderground v.1.15,2013-04-10 22:00:00,
2013-04-10 18:05:00,41.2,37.0,29.91,ESE,103,4.0,5.0,85,0.00,,,0.33,Wunderground v.1.15,2013-04-10 22:05:00,
2013-04-10 18:15:00,41.3,36.5,29.91,ENE,68,5.0,10.0,83,0.00,,,0.33,Wunderground v.1.15,2013-04-10 22:15:00,
2013-04-10 18:25:00,41.3,36.5,29.91,ENE,62,5.0,5.0,83,0.00,,,0.33,Wunderground v.1.15,2013-04-10 22:25:00,
2013-04-10 18:30:00,41.5,36.4,29.91,ENE,73,6.0,6.0,82,0.00,,,0.33,Wunderground v.1.15,2013-04-10 22:30:00,
2013-04-10 18:35:00,41.5,36.4,29.91,East,93,5.0,6.0,82,0.00,,,0.33,Wunderground v.1.15,2013-04-10 22:35:00,
2013-04-10 18:45:00,41.3,36.2,29.92,SE,124,5.0,6.0,82,0.00,,,0.33,Wunderground v.1.15,2013-04-10 22:45:00,
2013-04-10 18:50:00,41.3,36.2,29.92,ESE,116,4.0,5.0,82,0.00,,,0.33,Wunderground v.1.15,2013-04-10 22:50:00,
2013-04-10 18:55:00,41.3,36.2,29.92,ENE,59,4.0,5.0,82,0.00,,,0.33,Wunderground v.1.15,2013-04-10 22:55:00,
2013-04-10 19:05:00,41.3,35.9,29.94,ESE,106,3.0,8.0,81,0.00,,,0.33,Wunderground v.1.15,2013-04-10 23:05:00,
2013-04-10 19:15:00,41.5,35.8,29.91,East,100,6.0,12.0,80,0.00,,,0.33,Wunderground v.1.15,2013-04-10 23:15:00,
2013-04-10 19:20:00,41.5,35.8,29.91,ESE,104,6.0,6.0,80,0.00,,,0.33,Wunderground v.1.15,2013-04-10 23:20:00,
2013-04-10 19:25:00,41.3,35.3,29.91,ESE,110,6.0,8.0,79,0.00,,,0.33,Wunderground v.1.15,2013-04-10 23:25:00,
2013-04-10 19:30:00,41.3,35.3,29.91,ENE,59,7.0,7.0,79,0.00,,,0.33,Wunderground v.1.15,2013-04-10 23:30:00,
2013-04-10 19:40:00,41.2,35.2,29.91,SSE,147,5.0,5.0,79,0.00,,,0.33,Wunderground v.1.15,2013-04-10 23:40:00,
2013-04-10 19:45:00,41.2,35.2,29.91,ESE,104,6.0,6.0,79,0.00,,,0.33,Wunderground v.1.15,2013-04-10 23:45:00,
2013-04-10 19:50:00,41.1,34.8,29.91,ESE,104,7.0,7.0,78,0.00,,,0.33,Wunderground v.1.15,2013-04-10 23:50:00,
2013-04-10 19:55:00,41.1,35.1,29.91,ESE,103,6.0,12.0,79,0.00,,,0.33,Wunderground v.1.15,2013-04-10 23:55:00,
2013-04-10 20:05:00,40.9,34.9,29.89,ESE,109,8.0,11.0,79,0.00,,,0.33,Wunderground v.1.15,2013-04-11 00:05:00,
2013-04-10 20:15:00,40.8,34.8,29.89,ESE,117,7.0,10.0,79,0.00,,,0.33,Wunderground v.1.15,2013-04-11 00:15:00,
2013-04-10 20:20:00,40.8,34.8,29.89,ESE,107,7.0,7.0,79,0.00,,,0.33,Wunderground v.1.15,2013-04-11 00:20:00,
2013-04-10 20:25:00,40.8,34.8,29.89,East,82,7.0,12.0,79,0.00,,,0.33,Wunderground v.1.15,2013-04-11 00:25:00,
2013-04-10 20:30:00,40.8,34.5,29.90,East,96,7.0,7.0,78,0.00,,,0.33,Wunderground v.1.15,2013-04-11 00:30:00,
2013-04-10 20:40:00,40.8,33.8,29.90,ESE,112,7.0,7.0,76,0.00,,,0.33,Wunderground v.1.15,2013-04-11 00:40:00,
2013-04-10 20:45:00,40.8,33.8,29.90,NE,45,7.0,7.0,76,0.00,,,0.33,Wunderground v.1.15,2013-04-11 00:45:00,
2013-04-10 20:50:00,40.6,33.6,29.90,ESE,107,6.0,10.0,76,0.00,,,0.33,Wunderground v.1.15,2013-04-11 00:50:00,
2013-04-10 21:00:00,40.5,33.9,29.89,NE,42,6.0,6.0,77,0.00,,,0.33,Wunderground v.1.15,2013-04-11 01:00:00,
2013-04-10 21:05:00,40.5,33.9,29.89,East,100,5.0,6.0,77,0.00,,,0.33,Wunderground v.1.15,2013-04-11 01:05:00,
2013-04-10 21:15:00,40.3,33.7,29.88,East,100,6.0,6.0,77,0.00,,,0.33,Wunderground v.1.15,2013-04-11 01:15:00,
2013-04-10 21:20:00,40.2,33.6,29.88,ESE,113,6.0,7.0,77,0.00,,,0.33,Wunderground v.1.15,2013-04-11 01:20:00,
2013-04-10 21:25:00,40.1,33.1,29.88,East,90,6.0,12.0,76,0.00,,,0.33,Wunderground v.1.15,2013-04-11 01:25:00,
2013-04-10 21:35:00,40.1,33.1,29.89,NE,38,7.0,7.0,76,0.00,,,0.33,Wunderground v.1.15,2013-04-11 01:35:00,
2013-04-10 21:40:00,39.9,32.9,29.89,ENE,61,6.0,7.0,76,0.00,,,0.33,Wunderground v.1.15,2013-04-11 01:40:00,
2013-04-10 21:45:00,39.9,32.6,29.89,East,82,5.0,7.0,75,0.00,,,0.33,Wunderground v.1.15,2013-04-11 01:45:00,
2013-04-10 21:50:00,39.8,32.5,29.89,East,88,7.0,7.0,75,0.00,,,0.33,Wunderground v.1.15,2013-04-11 01:50:00,
2013-04-10 22:00:00,39.6,32.7,29.89,East,100,7.0,9.0,76,0.00,,,0.34,Wunderground v.1.15,2013-04-11 02:00:00,
2013-04-10 22:05:00,39.6,32.7,29.89,ESE,107,5.0,9.0,76,0.00,,,0.34,Wunderground v.1.15,2013-04-11 02:05:00,
2013-04-10 22:15:00,39.5,32.6,29.90,East,90,6.0,6.0,76,0.00,,,0.34,Wunderground v.1.15,2013-04-11 02:15:00,
2013-04-10 22:20:00,39.3,32.0,29.90,ESE,102,7.0,9.0,75,0.00,,,0.34,Wunderground v.1.15,2013-04-11 02:20:00,
2013-04-10 22:25:00,39.2,31.9,29.90,East,86,7.0,9.0,75,0.00,,,0.34,Wunderground v.1.15,2013-04-11 02:25:00,
2013-04-10 22:35:00,39.1,31.8,29.90,East,86,6.0,10.0,75,0.00,,,0.34,Wunderground v.1.15,2013-04-11 02:35:00,
2013-04-10 22:40:00,38.9,31.6,29.90,East,83,8.0,8.0,75,0.00,,,0.34,Wunderground v.1.15,2013-04-11 02:40:00,
2013-04-10 22:45:00,38.8,31.6,29.89,ESE,117,7.0,8.0,75,0.00,,,0.34,Wunderground v.1.15,2013-04-11 02:45:00,
2013-04-10 22:50:00,38.8,31.6,29.89,ESE,103,8.0,8.0,75,0.00,,,0.34,Wunderground v.1.15,2013-04-11 02:50:00,
2013-04-10 23:00:00,38.5,31.6,29.91,ESE,117,6.0,6.0,76,0.00,,,0.34,Wunderground v.1.15,2013-04-11 03:00:00,
2013-04-10 23:05:00,38.3,31.1,29.91,NE,34,7.0,7.0,75,0.00,,,0.34,Wunderground v.1.15,2013-04-11 03:05:00,
2013-04-10 23:15:00,38.2,31.0,29.90,ENE,69,7.0,8.0,75,0.00,,,0.34,Wunderground v.1.15,2013-04-11 03:15:00,
2013-04-10 23:20:00,38.0,30.8,29.90,NNE,13,6.0,6.0,75,0.00,,,0.34,Wunderground v.1.15,2013-04-11 03:20:00,
2013-04-10 23:25:00,38.0,30.8,29.90,ENE,58,6.0,6.0,75,0.00,,,0.34,Wunderground v.1.15,2013-04-11 03:25:00,
2013-04-10 23:35:00,37.9,30.7,29.91,NNE,23,6.0,9.0,75,0.00,,,0.34,Wunderground v.1.15,2013-04-11 03:35:00,
2013-04-10 23:40:00,37.8,30.6,29.91,ENE,75,6.0,6.0,75,0.00,,,0.34,Wunderground v.1.15,2013-04-11 03:40:00,
2013-04-10 23:45:00,37.8,30.6,29.91,NNE,28,5.0,6.0,75,0.00,,,0.34,Wunderground v.1.15,2013-04-11 03:45:00,
2013-04-10 23:55:00,37.8,30.3,29.91,ESE,103,6.0,12.0,74,0.00,,,0.34,Wunderground v.1.15,2013-04-11 03:55:00,